* Astronomy

Members Login
Username 
 
Password 
    Remember Me  
Post Info TOPIC: Asteroid 2011 WF32


L

Posts: 131433
Date:
Asteroid 2011 WF32
Permalink  
 


Orbital elements:
2011 WF32                                                Earth MOID = 0.2143 AU
Epoch 2011 Aug. 27.0 TT = JDT 2455800.5                 MPC
M 330.79057              (2000.0)            P               Q
n   0.21432596     Peri.   48.42063     -0.25285075     -0.94395184
a   2.7653676      Node    57.43169     +0.79577219     -0.32764214
e   0.5908221      Incl.   14.58251     +0.55028458     +0.04006941
P   4.60           H   22.4           G   0.15           U   8

MPEC 2011 - W45



__________________
Page 1 of 1  sorted by
 
Quick Reply

Please log in to post quick replies.



Create your own FREE Forum
Report Abuse
Powered by ActiveBoard